DateTimeUTC,F1_A11,F1_S11,BsB_S11,BsG_S11,BsR_S11,BbsB_S11,BbsG_S11,BbsR_S11,BaB_A11,BaG_A11,BaR_A11,Tu_S11,T_S11,Uu_S11,U_S11,P_S11,T1_A11
2021-08-20T17:00:00Z,00000200,20000000,,,,,,,-000.09,0000.19,-000.06,20.4,27.0,09.1,06.1,0676.1,31.2
2021-08-20T17:01:00Z,00000200,20000000,,,,,,,-000.11,-000.14,-000.05,20.4,27.0,09.1,06.1,0676.1,31.2
2021-08-20T17:02:00Z,00000200,20000000,,,,,,,0000.31,0000.27,0000.47,20.4,27.0,09.1,06.1,0676.1,31.2
2021-08-20T17:03:00Z,00000200,60000000,,,,,,,0000.51,0000.41,0000.20,20.4,27.0,09.1,06.1,0676.1,31.2
2021-08-20T17:04:00Z,00000200,40000000,0004.74,0003.38,0002.17,0000.40,0000.36,0000.53,0001.20,0001.05,0000.93,20.5,26.9,09.3,06.3,0677.0,31.2
2021-08-20T17:05:00Z,00000200,00000000,0004.23,0002.94,0002.25,0000.48,0000.35,0000.45,0001.20,0000.84,0000.86,20.5,26.8,09.3,06.4,0677.1,31.2
2021-08-20T17:06:00Z,00000200,00000000,0004.92,0003.43,0002.19,0000.85,0000.24,0000.25,0000.99,0001.13,0000.50,20.5,26.8,09.4,06.5,0677.1,31.2
2021-08-20T17:07:00Z,00000200,00000000,0004.69,0003.26,0002.25,0000.96,0000.65,0000.31,0001.14,0000.97,0000.89,20.5,26.8,09.4,06.5,0677.1,31.2
2021-08-20T17:08:00Z,00000200,00000000,0004.11,0003.59,0002.25,0000.37,0000.33,0000.33,0000.86,0000.78,0000.66,20.5,26.8,09.4,06.4,0677.1,31.1
2021-08-20T17:09:00Z,00000200,00000000,0004.58,0003.61,0002.29,0000.59,0000.17,0000.37,0001.47,0001.21,0000.91,20.5,26.8,09.5,06.5,0677.1,31.1
2021-08-20T17:10:00Z,00000200,00000000,0005.20,0003.52,0002.38,0000.59,0000.24,0000.22,0001.02,0001.05,0000.92,20.5,26.8,09.5,06.5,0677.1,31.1
2021-08-20T17:11:00Z,00000200,00000000,0004.87,0003.37,0002.36,0000.66,0000.33,0000.13,0001.15,0001.26,0000.60,20.5,26.8,09.5,06.5,0677.1,31.1
2021-08-20T17:12:00Z,00000200,00000000,0004.79,0003.27,0002.28,0000.77,0000.55,0000.58,0001.09,0000.77,0000.84,20.5,26.8,09.5,06.5,0677.1,31.2
2021-08-20T17:13:00Z,00000200,00000000,0004.59,0003.16,0001.95,0001.13,0000.31,0000.08,0000.91,0000.98,0000.75,20.5,26.8,09.5,06.5,0677.1,31.2
2021-08-20T17:14:00Z,00000200,00000000,0004.87,0003.45,0002.49,0000.98,0000.26,0000.29,0000.81,0001.09,0000.90,20.5,26.8,09.4,06.5,0677.2,31.2
2021-08-20T17:15:00Z,00000200,00000000,0004.22,0003.47,0001.90,0000.94,0000.40,0000.38,0001.22,0000.77,0000.81,20.5,26.8,09.4,06.5,0677.2,31.2
2021-08-20T17:16:00Z,00000200,00000000,0003.70,0003.52,0002.43,0000.24,0000.26,0000.31,0001.11,0001.17,0000.68,20.5,26.8,09.6,06.6,0677.1,31.2
2021-08-20T17:17:00Z,00000200,00000000,0004.05,0003.11,0002.17,0000.89,0000.40,0000.28,0000.98,0000.62,0000.69,20.5,26.8,09.5,06.5,0677.1,31.2
2021-08-20T17:18:00Z,00000200,00000000,0003.97,0003.20,0001.95,0000.92,0000.29,0000.00,0001.14,0001.55,0001.03,20.5,26.8,09.6,06.6,0677.2,31.2
2021-08-20T17:19:00Z,00000200,00000000,0004.55,0003.36,0002.22,0000.27,0000.23,0000.17,0000.93,0000.84,0000.52,20.5,26.8,09.5,06.6,0677.2,31.2
2021-08-20T17:20:00Z,00000200,00000000,0003.93,0003.05,0002.05,0000.55,0000.43,0000.23,0000.91,0000.76,0000.69,20.5,26.8,09.6,06.6,0677.2,31.2
2021-08-20T17:21:00Z,00000200,00000000,0004.85,0003.15,0002.21,0001.13,0000.38,0000.07,0000.95,0000.84,0000.96,20.5,26.8,09.6,06.6,0677.2,31.1
2021-08-20T17:22:00Z,00000200,00000000,0003.24,0003.09,0001.95,0000.94,0000.14,0000.08,0001.41,0001.13,0000.70,20.5,26.7,09.8,06.7,0677.1,31.2
2021-08-20T17:23:00Z,00000200,00000000,0004.92,0002.97,0001.26,0001.22,0000.25,0000.03,0000.78,0000.78,0000.54,20.5,26.7,09.7,06.7,0677.2,31.2
2021-08-20T17:24:00Z,00000200,00000000,0003.11,0002.90,0001.86,0000.53,0000.38,0000.21,0000.90,0000.77,0000.61,20.5,26.7,09.6,06.6,0677.2,31.2
2021-08-20T17:25:00Z,00000200,00000000,0003.71,0002.43,0002.07,0001.25,0000.37,0000.13,0000.37,0000.76,0000.51,20.5,26.7,09.6,06.6,0677.2,31.2
2021-08-20T17:26:00Z,00000200,00000000,0004.12,0003.05,0001.68,0001.23,0000.71,0000.14,0001.12,0000.80,0000.61,20.5,26.7,09.5,06.5,0677.2,31.1
2021-08-20T17:27:00Z,00000200,00000000,0004.00,0002.88,0001.86,0000.25,0000.29,0000.32,0001.27,0001.08,0000.98,20.5,26.7,09.5,06.5,0677.2,31.1
2021-08-20T17:28:00Z,00000200,00000000,0003.01,0002.80,0001.42,0000.83,0000.09,0000.18,0000.44,0000.40,0000.67,20.5,26.7,09.6,06.6,0677.2,31.2
2021-08-20T17:29:00Z,00000200,00000000,0003.75,0002.86,0002.04,0000.53,0000.79,0000.10,0001.14,0000.67,0000.53,20.5,26.7,09.5,06.5,0677.2,31.2
2021-08-20T17:30:00Z,00000200,00000000,0004.34,0002.80,0001.96,0000.63,0000.23,0000.05,0001.12,0001.30,0000.82,20.5,26.7,09.5,06.5,0677.2,31.2
2021-08-20T17:31:00Z,00000200,00000000,0003.47,0003.08,0001.80,0000.58,0000.31,0000.37,0000.83,0000.96,0000.75,20.5,26.7,09.6,06.6,0677.2,31.2
2021-08-20T17:32:00Z,00000200,00000000,0003.76,0002.88,0002.05,0000.83,0000.03,0000.10,0000.57,0000.36,0000.08,20.5,26.7,09.6,06.6,0677.2,31.1
2021-08-20T17:33:00Z,00000200,00000000,0003.39,0002.39,0001.92,0000.29,0000.35,0000.02,0000.98,0000.97,0000.93,20.5,26.7,09.5,06.5,0677.2,31.1
2021-08-20T17:34:00Z,00000200,00000000,0003.63,0002.67,0001.79,0000.91,0000.09,0000.14,0000.56,0000.41,0000.04,20.5,26.7,09.4,06.5,0677.2,31.1
2021-08-20T17:35:00Z,00000200,00000000,0002.86,0002.56,0001.65,0000.85,0000.23,-000.01,0000.85,0001.17,0000.90,20.5,26.7,09.4,06.4,0677.2,31.1
2021-08-20T17:36:00Z,00000200,00000000,0003.22,0002.51,0001.72,0000.54,-000.03,0000.23,0000.56,0000.24,0000.75,20.5,26.7,09.5,06.5,0677.2,31.1
2021-08-20T17:37:00Z,00000200,00000000,0002.88,0002.46,0001.58,0000.76,0000.32,0000.22,0001.24,0000.75,0000.44,20.5,26.7,09.3,06.4,0677.2,31.2
2021-08-20T17:38:00Z,00000200,00000000,0003.14,0002.15,0001.64,0000.58,0000.23,0000.09,0000.60,0000.85,0000.65,20.5,26.7,09.5,06.6,0677.2,31.2
2021-08-20T17:39:00Z,00000200,00000000,0003.93,0002.66,0001.70,0000.58,0000.40,0000.07,0000.75,0000.70,0000.63,20.5,26.7,09.5,06.5,0677.2,31.2
2021-08-20T17:40:00Z,00000200,00000000,0002.93,0002.58,0001.76,0000.50,0000.38,0000.09,0000.54,0000.39,0000.12,20.5,26.7,09.4,06.5,0677.3,31.2
2021-08-20T17:41:00Z,00000200,00000000,0002.86,0002.31,0001.27,0000.47,0000.23,0000.05,0000.62,0000.73,0000.66,20.4,26.7,09.4,06.5,0677.3,31.2
2021-08-20T17:42:00Z,00000200,00000000,0002.34,0001.82,0001.20,0000.22,0000.19,0000.73,0000.60,0000.60,-000.01,20.4,26.7,09.3,06.4,0677.3,31.2
2021-08-20T17:43:00Z,00000200,00000000,0002.61,0001.68,0001.31,0000.67,0000.22,-000.13,0000.40,0000.69,0000.40,20.4,26.7,09.4,06.4,0677.3,31.1
2021-08-20T17:44:00Z,00000200,00000000,0003.02,0002.49,0001.69,0000.14,0000.12,0000.13,0000.75,0000.53,0000.76,20.4,26.7,09.3,06.4,0677.3,31.1
2021-08-20T17:45:00Z,00000200,00000000,0001.88,0002.03,0001.54,0000.87,0000.19,0000.24,0000.64,0000.52,0000.55,20.4,26.7,09.5,06.5,0677.3,31.2
2021-08-20T17:46:00Z,00000200,00000000,0003.06,0002.41,0001.39,0000.49,0000.10,0000.19,0000.56,0000.65,0000.38,20.4,26.7,09.3,06.4,0677.3,31.2
2021-08-20T17:47:00Z,00000200,00000000,0002.51,0001.92,0001.39,0000.70,0000.28,0000.20,0000.55,0000.20,0000.27,20.4,26.7,09.2,06.3,0677.3,31.2
2021-08-20T17:48:00Z,00000200,00000000,0003.73,0002.42,0001.43,0000.39,0000.27,0000.43,0000.58,0000.95,0000.73,20.4,26.7,09.1,06.2,0677.3,31.2
2021-08-20T17:49:00Z,00000200,00000000,0001.78,0002.12,0001.49,0001.20,-000.01,-000.01,0000.84,0000.37,0000.40,20.4,26.7,09.2,06.3,0677.2,31.2
2021-08-20T17:50:00Z,00000200,00000000,0001.39,0001.71,0001.11,0000.75,0000.40,0000.20,0000.24,0000.34,0000.30,20.4,26.7,09.2,06.3,0677.3,31.2
2021-08-20T17:51:00Z,00000200,00000000,0002.11,0001.77,0001.28,0000.15,0000.11,0000.42,0000.76,0000.65,0000.55,20.4,26.7,09.2,06.3,0677.3,31.1
2021-08-20T17:52:00Z,00000200,00000000,0003.07,0001.43,0001.04,0000.10,0000.38,0000.01,0000.31,0000.18,0000.34,20.4,26.7,09.1,06.2,0677.3,31.1
2021-08-20T17:53:00Z,00000200,00000000,0002.14,0002.21,0001.60,0000.35,0000.27,-000.08,0001.04,0000.99,0000.49,20.4,26.7,09.2,06.3,0677.3,31.1
2021-08-20T17:54:00Z,00000200,00000000,0003.70,0002.43,0001.25,0001.14,0000.25,0000.22,0000.35,0000.66,0000.23,20.4,26.7,09.4,06.4,0677.3,31.2
2021-08-20T17:55:00Z,00000200,00000000,0002.89,0002.02,0001.43,0000.86,0000.48,0000.34,0000.85,0000.30,0000.54,20.4,26.6,09.4,06.4,0677.3,31.2
2021-08-20T17:56:00Z,00000200,00000000,0002.43,0001.88,0000.84,-000.03,0000.01,0000.01,0000.44,0000.79,0000.41,20.4,26.7,09.5,06.5,0677.2,31.2
2021-08-20T17:57:00Z,00000200,40000000,,,,,,,0000.32,0000.06,0000.20,20.4,26.7,09.8,06.7,0677.2,31.2
2021-08-20T17:58:00Z,00000200,60000000,,,,,,,0000.05,-000.15,-000.19,20.2,26.8,09.5,06.3,0676.2,31.2
2021-08-20T17:59:00Z,00000200,20000000,,,,,,,-000.27,0000.00,0000.07,20.2,26.9,09.4,06.3,0676.2,31.2
